Location: Casone le Fosse
(44.6547°N, 12.1103°E)
Time: 10:19:05
(UTC+00:00)

AQUARIUS - Pass Details

Date: 29 October 2020
Orbit: 650 x 653 km, 98.0° (Epoch: 27 November)

Event Time Altitude Azimuth Distance (km) Brightness Sun altitude
Rises 16:30:21 0° 161° (SSE) 2,961 7.5 -5.3°
Reaches altitude 10° 16:32:33 10° 160° (SSE) 2,055 6.7 -5.7°
Maximum altitude 16:37:02 78° 75° (ENE) 674 4.1 -6.4°
Drops below altitude 10° 16:41:33 10° 350° (N) 2,070 6.7 -7.2°
Sets 16:43:46 0° 349° (N) 2,985 7.6 -7.6°
